Overview Statistics Trail Chart Weather Telemetry Raw packets
 

This is the latest recevied weather packets stored in our database for station/object W6MAF. If no packets are shown the sender has not sent any weather packets the latest 10 day(s).

<< 52 53 54 55 56 57 58 >>
Time Temp. Humidity Pressure Rain* Wind** Luminosity Snow
1788298361 25.56° C 5% - 0 mm 10.73 m/s, 176° - -
1788298063 26.11° C 5% - 0 mm 8.94 m/s, 167° - -
1788297766 26.11° C 5% - 0 mm 8.94 m/s, 205° - -
1788297464 25.56° C 5% - 0 mm 7.6 m/s, 193° - -
1788297167 25.56° C 5% - 0 mm 7.6 m/s, 200° - -
1788296869 25.56° C 5% - 0 mm 9.83 m/s, 195° - -
1788296571 25.56° C 5% - 0 mm 8.49 m/s, 159° - -
1788296274 26.11° C 5% - 0 mm 8.94 m/s, 187° - -
1788295976 26.11° C 5% - 0 mm 8.49 m/s, 187° - -
1788295675 26.11° C 5% - 0 mm 8.94 m/s, 188° - -
1788295377 26.11° C 5% - 0 mm 9.83 m/s, 211° - -
1788295080 26.11° C 5% - 0 mm 8.49 m/s, 181° - -
1788294782 26.11° C 5% - 0 mm 5.36 m/s, 201° - -
1788294517 26.11° C 5% - 0 mm 9.39 m/s, 194° - -
1788294484 26.11° C 5% - 0 mm 9.39 m/s, 194° - -
1788294186 26.11° C 5% - 0 mm 6.26 m/s, 210° - -
1788293885 25.56° C 5% - 0 mm 6.26 m/s, 197° - -
1788293588 25.56° C 5% - 0 mm 8.94 m/s, 191° - -
1788293290 25.56° C 5% - 0 mm 5.81 m/s, 222° - -
1788292992 25.56° C 5% - 0 mm 4.92 m/s, 207° - -
1788292694 25.56° C 5% - 0 mm 7.15 m/s, 229° - -
1788292397 25.56° C 5% - 0 mm 7.6 m/s, 186° - -
1788292096 25.56° C 5% - 0 mm 10.28 m/s, 201° - -
1788291798 25.56° C 5% - 0 mm 8.05 m/s, 187° - -
1788291500 25.56° C 5% - 0 mm 8.49 m/s, 188° - -

* Rain latest hour (hover to see other rain measurements)
** Current wind speed in m/s (hover to see current wind gust speed)